Vorticity
12 11 9 9 9 8 9 9 10 11 12 12 10 9 10 10 10 10 10 10 10 10 10 9 9 10 13 14 14 12 9 8 6 5 6 4 3 4 7 9 10 9 6 4 4 5 6 6 6 7 7 5 3 2 2 3 3 3 4 4 4 5 6 7 7 6 6 7 5 5 4 4 5 4 4 4 3 3 3 3 3 3 4 4 4
12 12 12 11 10 10 9 10 10 9 9 8 6 6 6 7 9 9 11 11 10 10 10 10 10 10 11 11 12 12 9 8 5 5 9 10 8 5 4 6 8 9 8 6 4 4 5 5 5 5 7 7 6 4 3 3 2 3 4 4 5 4 5 6 7 7 6 6 6 6 5 5 5 5 5 5 4 3 2 2 2 3 3 3 3
11 10 11 11 9 8 8 8 8 7 7 6 6 7 7 8 8 9 11 13 12 11 9 8 8 9 8 8 10 11 11 10 8 7 8 10 11 10 8 7 7 8 8 7 6 4 3 3 3 5 6 8 8 8 6 4 3 3 4 5 5 5 5 5 6 6 6 6 6 7 7 6 6 5 5 4 3 3 2 2 2 2 2 3 3
11 12 12 11 9 7 7 6 5 6 7 7 8 6 6 6 5 7 9 12 14 14 13 10 9 9 9 11 12 12 12 11 11 10 9 9 10 10 10 10 9 9 9 8 7 5 4 3 3 5 6 7 8 9 9 7 5 4 3 3 4 4 5 6 6 5 5 5 5 6 7 6 5 5 4 3 3 2 2 2 2 2 2 2 3
8 11 14 12 8 5 5 7 6 7 9 9 9 6 3 4 4 5 4 4 7 8 11 11 10 8 7 8 8 9 11 11 11 9 9 9 10 11 11 10 10 10 10 9 8 6 5 3 2 3 5 6 7 9 10 10 9 7 5 4 4 4 4 5 6 5 5 5 4 5 6 5 4 4 3 2 3 3 3 3 2 2 2 2 3
9 9 13 12 6 3 5 10 8 7 10 10 9 6 4 6 6 6 5 4 4 5 5 6 7 7 6 7 6 7 9 12 13 12 10 9 9 10 11 11 10 10 10 10 11 9 8 5 3 1 2 5 6 7 9 11 11 10 9 7 6 5 4 5 5 5 5 5 4 4 4 4 4 3 3 3 3 3 3 2 2 2 2 2 3
13 12 13 11 5 6 8 10 10 8 10 10 8 8 7 7 9 9 9 8 6 5 4 4 4 4 5 5 5 6 6 6 9 11 12 11 10 9 9 10 10 11 10 10 11 11 11 10 7 5 3 4 4 5 7 9 9 10 10 9 7 5 5 5 5 5 5 5 5 5 4 4 4 3 3 4 3 3 3 2 1 1 2 3 4
13 14 16 14 7 8 9 7 10 10 9 9 8 8 6 6 8 9 9 7 6 5 5 4 4 3 3 5 6 7 6 5 5 7 9 10 11 10 9 9 9 9 10 11 11 12 13 13 11 9 8 7 6 5 5 8 9 9 11 10 8 6 6 5 5 5 5 5 5 5 5 4 4 3 2 3 3 4 3 2 2 3 5 6 7
12 12 13 14 8 6 7 7 9 9 9 9 8 6 5 5 7 8 6 5 6 5 6 7 6 4 3 5 7 7 7 7 6 6 7 9 10 10 10 10 9 8 9 11 12 12 13 14 13 11 9 8 8 7 6 8 9 10 12 12 11 8 7 7 6 6 5 5 6 5 6 6 5 4 3 2 2 4 4 3 3 5 7 8 8
10 10 11 12 11 7 6 8 8 9 9 7 6 6 5 5 7 8 7 7 8 9 13 15 13 8 5 5 7 8 8 7 7 7 8 8 7 7 10 11 10 8 8 10 13 14 14 13 12 11 9 7 6 5 5 6 7 8 10 12 12 10 8 7 6 6 6 5 6 6 6 6 5 5 5 4 3 4 5 4 4 5 8 7 6
7 9 10 10 11 9 8 10 8 9 9 6 7 8 6 6 7 9 8 8 10 13 19 22 17 10 7 8 8 7 7 6 6 6 8 6 3 4 7 9 11 10 9 8 9 11 13 14 12 10 9 7 5 4 2 2 4 5 7 10 12 13 12 10 8 6 6 5 5 7 7 6 5 5 7 6 4 4 5 5 4 4 7 7 4
7 8 10 9 11 12 10 11 9 9 10 8 7 7 5 5 8 9 7 7 9 10 14 17 15 7 5 11 12 9 7 7 6 5 6 5 3 4 5 6 8 10 12 11 12 13 12 12 13 12 10 8 6 3 2 1 2 2 2 4 6 9 12 14 14 11 9 6 5 7 8 7 4 4 7 8 6 6 7 6 4 4 5 5 4
8 8 9 8 10 12 12 12 12 11 11 8 4 4 4 6 8 7 5 6 4 4 7 8 8 5 5 8 10 11 10 8 8 7 6 6 5 4 4 5 4 5 8 8 11 15 15 15 14 13 12 11 8 4 2 1 2 2 -0 -0 0 1 3 6 10 12 12 10 9 9 9 9 7 4 3 6 7 7 7 7 6 6 4 3 2
9 9 9 8 9 11 12 12 11 10 9 7 6 7 7 8 8 4 5 5 -1 1 7 5 3 3 6 7 6 11 13 10 9 8 8 8 7 7 5 5 5 5 5 4 3 4 9 17 19 17 14 14 13 9 5 2 1 1 -0 -0 -0 0 1 1 3 5 8 9 10 11 10 10 11 8 4 3 5 6 7 8 8 7 5 4 4
9 9 8 8 9 10 10 10 9 8 8 9 10 10 8 6 5 4 4 3 0 3 7 6 4 2 6 8 6 9 10 8 9 8 9 9 8 9 8 7 7 6 6 8 8 6 5 10 14 13 13 16 17 15 12 9 5 4 3 2 2 2 2 2 2 1 2 3 5 9 10 10 10 11 9 6 5 6 6 8 8 7 6 7 7
10 9 8 8 9 9 9 9 8 8 9 9 10 9 6 5 5 5 4 4 3 4 5 7 7 5 8 8 5 7 7 6 7 7 8 8 7 8 8 9 9 7 6 7 11 13 12 12 10 7 7 11 14 14 15 14 12 11 10 8 7 6 4 3 3 2 1 1 2 6 10 11 9 10 12 11 10 8 7 8 7 7 8 8 8
10 9 9 8 8 7 9 10 9 8 8 8 9 8 6 5 4 4 4 5 3 3 6 8 9 6 7 8 5 5 6 7 8 8 8 7 6 6 7 9 9 9 8 7 9 10 13 17 17 11 7 7 7 8 9 10 11 11 11 11 10 9 8 7 8 7 5 2 0 5 9 11 10 8 8 11 11 10 9 8 8 8 8 8 9
12 11 10 9 8 7 8 9 10 9 8 8 8 8 7 6 6 5 4 5 5 6 7 6 5 3 2 5 6 4 5 6 6 6 7 7 7 6 6 7 9 9 9 8 7 5 6 11 14 14 11 9 9 9 9 8 9 9 10 11 11 11 11 12 13 13 13 10 7 6 3 2 8 10 9 10 10 11 10 8 7 8 8 8 9
10 11 11 10 10 9 7 8 8 9 9 8 7 7 8 7 8 8 7 7 7 6 6 4 3 3 4 5 5 5 5 5 5 5 6 7 7 6 6 6 7 8 9 8 6 4 3 5 7 9 9 9 9 9 9 8 8 10 12 11 10 11 11 10 12 13 14 12 13 13 4 -3 3 9 10 9 9 9 9 7 7 6 6 7 9
11 10 9 10 11 10 10 9 8 8 8 8 8 7 8 8 9 10 10 10 8 6 5 6 6 6 7 7 6 7 7 6 6 6 6 7 7 7 7 7 7 7 8 9 8 6 5 4 4 6 6 7 7 8 8 9 12 16 16 15 14 13 13 13 13 15 17 13 11 17 19 9 2 3 5 8 10 9 7 8 8 7 6 7 7
13 13 10 8 10 10 11 10 8 8 8 8 8 8 9 10 10 11 11 10 10 10 9 9 10 10 9 9 8 8 8 8 8 8 7 8 8 8 8 8 9 9 9 9 10 10 8 7 7 7 5 6 7 8 8 8 11 16 17 16 15 15 18 19 14 14 21 22 13 10 14 12 8 7 7 8 9 8 6 7 8 7 6 8 9
11 15 15 11 10 10 11 12 10 9 8 8 9 9 10 10 11 12 12 12 12 11 12 12 11 11 10 9 9 9 9 9 9 9 9 9 9 9 9 10 10 10 10 10 10 11 11 10 10 9 8 7 7 7 8 7 9 16 18 11 8 13 21 21 17 13 12 19 19 9 7 9 11 12 9 6 5 4 4 3 5 7 6 6 7
9 13 17 15 12 11 12 12 11 11 11 10 10 9 9 10 10 11 11 11 11 11 11 11 11 11 10 10 10 10 10 10 10 10 10 10 11 11 11 11 11 11 10 10 11 12 12 12 12 11 10 10 8 7 9 9 9 15 19 13 7 9 12 11 15 17 11 13 17 15 13 11 8 6 6 7 6 5 7 5 2 4 5 4 4
13 14 17 17 14 13 14 14 13 12 11 11 10 10 10 10 11 12 12 11 11 11 10 10 10 10 10 10 10 10 10 11 11 11 11 11 11 12 12 12 12 12 11 11 12 12 13 14 14 14 13 12 11 9 9 8 6 6 11 16 15 8 1 -4 2 10 9 9 9 10 12 8 5 4 3 7 7 5 10 11 7 5 6 4 3
14 16 16 17 15 14 15 15 14 12 11 11 10 10 11 11 12 12 13 13 12 11 10 10 10 10 11 11 11 11 11 11 11 11 12 12 12 12 13 13 13 13 13 13 13 13 13 13 13 14 14 13 13 13 12 10 8 6 5 11 17 17 11 4 1 -1 -1 5 11 15 18 13 9 6 2 3 4 2 3 6 7 8 13 14 7
11 13 16 17 14 15 16 16 16 13 12 11 10 10 10 10 12 12 12 13 13 13 13 13 13 13 13 13 13 13 13 13 13 13 13 13 14 14 14 14 14 14 14 15 15 14 14 14 14 14 14 14 14 13 14 11 10 11 9 9 11 17 18 16 13 7 1 3 7 11 17 17 16 13 8 5 3 1 1 3 5 3 6 11 8
7 11 14 14 12 14 16 16 15 13 11 11 9 8 7 7 9 10 11 13 13 14 14 14 15 15 16 16 17 17 16 16 15 14 14 14 14 15 16 15 15 15 15 15 16 16 15 15 14 15 15 16 16 15 15 15 14 14 14 12 10 11 13 14 16 16 12 7 2 1 5 7 8 9 9 7 5 4 4 5 9 6 0 -1 1
6 10 13 12 10 11 14 16 16 14 11 11 9 7 6 5 5 6 7 9 10 11 12 13 14 14 15 16 16 17 17 17 16 15 14 14 14 14 14 14 14 15 15 16 17 16 16 16 16 17 15 15 16 16 14 15 15 16 16 15 14 12 11 11 13 14 15 16 14 13 14 12 11 12 10 5 1 3 5 5 4 1 -2 -3 -2
6 9 10 11 9 8 11 13 14 14 13 12 11 10 8 7 6 5 4 4 5 6 6 7 8 9 10 11 11 12 13 13 14 13 12 12 12 11 11 12 11 11 12 13 14 14 14 15 15 15 16 15 15 15 15 15 15 15 15 15 15 14 13 12 12 12 12 14 15 16 18 19 19 22 20 14 6 3 6 10 9 4 4 8 12
8 10 8 8 8 9 10 10 11 12 13 13 12 11 11 10 9 8 6 4 4 3 3 3 4 5 6 6 7 7 8 8 9 9 10 10 9 9 9 10 9 9 9 8 9 9 10 10 10 10 11 12 11 11 12 13 13 14 14 14 14 13 14 14 13 13 12 12 13 13 15 17 19 23 27 27 23 16 9 7 7 5 4 4 6
2 5 8 9 10 11 9 8 10 10 10 11 11 10 10 9 9 9 8 7 6 5 5 4 3 4 4 5 5 5 5 6 7 6 7 6 6 6 6 6 7 7 8 8 7 7 7 7 7 7 7 7 8 8 8 8 9 10 10 11 11 11 11 11 11 12 11 11 12 12 12 13 15 17 20 24 28 29 27 21 16 13 10 7 5
9 11 14 12 12 14 12 9 9 10 11 11 10 9 8 7 8 8 8 8 8 7 7 6 6 6 6 6 6 6 6 6 7 8 8 8 8 7 6 6 6 6 6 6 7 7 6 6 5 5 6 6 5 6 6 6 6 6 7 7 7 8 8 8 8 8 8 8 8 9 9 9 9 9 10 13 16 21 27 30 30 28 24 19 15
21 14 8 7 9 13 14 12 9 8 10 11 11 9 8 6 6 6 7 7 7 7 7 6 6 5 5 5 4 3 2 2 3 4 5 6 7 8 9 8 8 8 8 7 7 7 8 8 7 6 6 6 6 6 6 6 6 6 6 6 5 5 6 7 7 6 6 6 6 6 6 6 6 6 6 7 8 9 11 16 21 25 27 25 20
9 4 3 5 6 9 14 16 13 11 10 11 11 11 9 8 6 5 5 5 5 5 5 4 5 5 5 5 4 3 3 3 4 3 2 1 2 4 5 6 6 7 7 7 7 7 7 9 9 9 9 8 8 8 8 8 9 8 8 8 8 8 7 7 7 7 7 6 6 6 5 5 4 5 5 5 5 6 6 6 8 12 18 24 26
3 5 6 4 2 7 14 14 12 11 11 9 7 6 7 8 8 8 8 7 5 3 2 2 3 3 2 4 5 6 7 7 8 8 7 4 2 2 3 4 4 5 5 6 6 6 6 6 6 7 7 8 7 7 6 6 8 9 9 10 9 10 10 10 10 10 10 10 9 9 8 7 7 5 5 5 4 4 4 5 5 6 7 11 16
7 5 5 9 12 15 19 16 11 12 15 14 9 6 5 5 7 9 10 10 8 4 2 1 1 -0 0 3 6 6 6 7 7 8 9 9 7 5 5 4 4 5 5 6 7 7 7 7 6 6 5 6 6 7 7 6 5 5 6 7 8 7 8 8 9 10 10 11 11 12 12 11 11 10 9 8 7 6 5 4 4 4 5 6 6
9 7 10 15 11 5 8 10 10 12 10 6 6 8 9 9 11 11 11 11 10 8 5 2 1 3 5 7 5 1 2 6 8 7 7 9 9 7 5 4 4 4 5 5 5 5 5 6 6 6 5 5 4 4 6 6 6 6 5 6 6 7 8 8 7 7 8 9 9 10 11 11 12 12 12 12 12 11 10 8 7 5 4 4 4
10 9 8 7 1 -1 2 5 8 10 8 4 7 10 10 7 4 4 3 6 9 9 8 5 4 5 5 5 3 -2 -2 3 10 11 8 8 10 10 7 4 4 4 4 4 4 3 3 3 3 4 3 3 3 3 3 4 6 8 9 8 6 4 4 5 5 3 3 4 5 5 6 7 8 9 10 11 11 12 12 12 11 11 9 7 6
2 3 3 5 8 10 10 9 6 5 5 5 6 10 11 3 -1 2 4 7 11 11 9 6 5 4 3 5 5 3 1 2 8 13 11 7 8 11 11 8 6 5 4 4 4 4 4 3 4 4 4 4 4 4 5 5 6 6 5 4 4 1 -3 -4 -3 -3 -3 -3 -2 -0 1 1 3 4 5 7 8 9 10 11 11 11 12 11 10
3 7 8 7 8 9 11 10 8 8 9 9 9 14 12 3 5 8 5 7 13 16 14 11 6 4 3 4 5 6 6 5 7 12 12 8 7 9 12 11 9 8 7 6 6 6 6 6 6 6 6 6 4 4 5 6 6 4 -1 -5 -3 -1 -2 -4 -4 -2 -1 -1 -1 -0 1 -0 -1 -0 1 3 4 5 6 8 9 9 10 11 12
6 10 8 7 12 15 12 9 11 14 14 12 14 16 10 6 7 -2 -9 -0 6 5 8 10 7 4 4 6 6 7 10 10 8 8 8 7 7 9 11 9 6 5 4 3 3 4 5 5 4 3 3 3 3 3 4 5 5 3 -3 -7 -7 -6 -5 -4 -3 -2 -1 -1 -1 0 1 1 -1 -2 -1 2 4 4 4 4 5 7 8 8 9
13 15 7 4 10 12 7 4 6 7 5 7 11 13 10 7 -1 -16 -13 7 12 4 3 4 1 1 3 4 5 4 6 6 5 5 6 6 6 6 7 5 1 -2 -2 -0 3 6 8 8 7 7 6 5 3 3 4 4 3 1 -3 -6 -6 -7 -7 -8 -7 -5 -3 -2 -1 1 2 0 -1 -2 -2 1 5 5 4 3 3 6 7 7 7
10 7 1 -0 3 6 7 7 5 4 6 10 8 0 -5 -3 -2 -4 2 13 17 16 15 11 6 5 3 1 -0 -0 0 -0 1 3 3 3 4 2 -0 -0 -1 -2 -2 -0 2 5 7 7 7 9 9 7 5 4 6 7 6 4 3 1 -1 -3 -5 -7 -10 -9 -5 -2 -1 2 3 1 0 1 -0 1 5 6 5 3 3 4 7 8 7
9 7 10 16 15 13 12 5 -1 1 4 4 1 -4 -3 4 12 12 6 5 10 14 14 13 12 11 9 7 6 5 3 2 2 2 -0 1 4 3 -0 -0 1 1 1 1 1 2 1 -1 -0 2 3 4 4 3 3 3 2 2 3 2 1 -1 -3 -6 -8 -8 -4 -1 -0 3 6 3 0 4 4 1 4 7 5 3 3 3 5 6 7
15 12 10 11 8 7 7 4 2 5 7 6 6 7 10 12 9 3 1 4 9 9 9 10 10 9 10 11 10 10 9 8 7 7 6 7 8 7 6 6 6 5 4 3 3 5 6 5 4 3 2 2 2 -0 -3 -4 -4 -3 -3 -3 -4 -5 -5 -6 -5 -4 -2 2 2 5 9 6 1 4 9 5 4 7 6 4 3 4 4 5 6
8 1 -4 -3 -2 1 5 6 8 13 14 12 9 6 6 6 4 1 2 4 6 8 11 12 11 10 9 8 8 9 9 10 10 9 10 10 10 11 12 11 11 11 10 10 9 10 11 10 10 10 9 8 7 6 4 3 3 4 4 4 3 3 4 4 4 5 6 7 7 6 10 10 3 5 11 9 5 7 7 5 4 4 4 6 6
4 -1 0 6 9 10 9 7 8 12 12 8 4 2 3 4 4 5 4 3 4 6 9 11 13 13 11 10 9 8 7 8 8 8 8 8 8 9 9 10 10 10 10 11 10 10 10 10 11 12 12 13 13 13 13 13 13 13 12 13 13 14 14 13 12 12 11 11 10 8 9 10 6 6 11 10 7 8 8 7 6 5 5 5 5
13 9 9 9 9 9 10 10 11 10 6 3 2 1 2 2 3 4 4 5 5 4 4 9 12 13 14 14 13 11 10 9 8 8 8 8 8 8 8 8 8 8 8 8 8 9 9 9 10 10 10 10 10 10 11 11 11 11 10 10 10 10 11 11 12 12 11 10 9 9 9 9 7 7 9 10 9 8 8 7 8 7 6 6 5
4 3 5 7 6 7 9 11 12 9 4 2 0 -1 0 2 4 6 7 6 5 4 5 8 10 10 12 14 14 13 13 12 11 10 10 10 9 9 8 8 9 9 10 10 10 11 11 11 12 11 11 11 10 9 9 9 8 8 8 7 8 8 9 9 10 10 11 10 11 11 10 9 8 8 9 10 10 9 8 9 9 9 7 6 7
7 9 10 10 9 10 11 11 11 9 5 1 -2 -3 1 6 8 10 11 9 5 5 7 10 10 9 10 11 12 12 11 11 12 11 11 11 11 11 11 12 12 13 13 13 13 13 13 13 13 12 12 12 12 12 12 12 11 11 10 10 10 10 11 12 11 11 10 10 11 11 11 10 10 9 9 10 10 11 10 9 9 10 9 9 8
15 15 13 11 10 10 10 9 9 7 4 0 -3 -2 4 9 10 10 11 9 5 6 10 12 11 10 11 12 11 10 11 11 10 10 11 12 12 13 13 14 14 14 14 13 13 13 12 13 13 13 14 14 13 13 13 13 13 13 13 13 13 13 12 11 10 9 8 7 8 10 11 11 10 10 10 10 9 9 11 11 11 10 10 10 9
Height
5801 5801 5800 5800 5800 5801 5801 5801 5801 5802 5803 5804 5804 5805 5805 5805 5806 5807 5807 5808 5809 5809 5810 5812 5813 5814 5815 5816 5817 5817 5818 5818 5819 5819 5820 5820 5821 5821 5822 5824 5825 5825 5826 5826 5827 5828 5829 5830 5831 5832 5833 5834 5835 5836 5837 5838 5839 5840 5841 5842 5843 5844 5845 5846 5847 5847 5848 5848 5849 5849 5850 5850 5851 5852 5852 5853 5853 5853 5854 5854 5854 5854 5854 5854 5855
5798 5798 5798 5798 5799 5799 5799 5799 5799 5800 5801 5802 5803 5803 5804 5804 5805 5805 5806 5806 5807 5808 5808 5810 5811 5812 5813 5814 5815 5816 5816 5817 5817 5818 5818 5818 5818 5819 5820 5821 5822 5823 5824 5824 5825 5825 5826 5828 5829 5830 5831 5832 5833 5834 5835 5836 5837 5838 5839 5840 5841 5843 5843 5844 5845 5846 5846 5847 5848 5848 5849 5849 5850 5850 5851 5851 5852 5852 5852 5853 5853 5853 5853 5853 5854
5796 5796 5796 5797 5797 5797 5797 5797 5797 5798 5799 5800 5801 5802 5802 5803 5803 5803 5804 5805 5805 5806 5806 5807 5809 5810 5811 5812 5813 5814 5815 5815 5816 5816 5816 5817 5817 5817 5818 5819 5819 5820 5821 5822 5823 5823 5824 5825 5826 5827 5828 5829 5830 5831 5832 5833 5835 5836 5837 5838 5839 5840 5841 5842 5843 5844 5845 5846 5846 5847 5847 5848 5848 5849 5849 5850 5850 5850 5851 5851 5852 5852 5852 5852 5853
5794 5794 5794 5796 5796 5795 5795 5795 5795 5796 5797 5798 5799 5800 5801 5801 5801 5802 5803 5803 5804 5804 5805 5806 5807 5808 5809 5810 5811 5812 5813 5813 5814 5814 5814 5815 5815 5815 5816 5816 5817 5818 5818 5819 5820 5821 5822 5823 5824 5825 5826 5827 5828 5829 5830 5831 5832 5833 5834 5836 5837 5838 5839 5840 5841 5842 5842 5844 5845 5845 5846 5846 5847 5847 5847 5848 5848 5848 5849 5849 5850 5850 5851 5851 5851
5792 5792 5794 5795 5794 5794 5794 5794 5794 5795 5796 5797 5798 5799 5799 5800 5800 5801 5802 5802 5803 5803 5804 5805 5806 5806 5807 5808 5809 5810 5811 5811 5811 5811 5812 5812 5813 5813 5813 5814 5815 5815 5816 5817 5817 5818 5819 5820 5821 5822 5823 5824 5825 5826 5827 5828 5829 5830 5832 5833 5834 5836 5837 5838 5839 5839 5840 5841 5842 5843 5844 5845 5845 5845 5845 5846 5846 5846 5847 5847 5848 5848 5849 5849 5850
5791 5791 5793 5793 5792 5792 5793 5793 5793 5793 5794 5795 5796 5797 5797 5798 5799 5800 5800 5801 5802 5802 5803 5803 5804 5805 5805 5806 5807 5808 5809 5809 5809 5809 5809 5810 5810 5810 5811 5812 5812 5813 5813 5814 5814 5815 5816 5817 5817 5819 5820 5821 5823 5824 5825 5826 5826 5827 5829 5830 5831 5833 5834 5835 5836 5837 5837 5838 5839 5840 5841 5842 5843 5843 5843 5843 5844 5844 5845 5845 5846 5846 5847 5847 5848
5791 5791 5792 5792 5791 5791 5792 5792 5792 5792 5793 5793 5794 5795 5796 5796 5797 5798 5799 5799 5800 5801 5801 5802 5802 5803 5804 5804 5805 5806 5807 5807 5807 5807 5807 5807 5808 5808 5808 5809 5810 5810 5811 5811 5812 5813 5813 5814 5815 5815 5817 5818 5820 5821 5822 5823 5823 5824 5825 5826 5828 5829 5830 5832 5833 5834 5835 5836 5837 5838 5839 5840 5841 5841 5841 5841 5842 5842 5843 5843 5844 5844 5845 5845 5845
5790 5790 5791 5791 5791 5790 5790 5791 5791 5792 5792 5792 5792 5793 5794 5795 5795 5796 5796 5797 5798 5798 5799 5800 5801 5801 5802 5803 5803 5804 5804 5805 5805 5805 5805 5806 5806 5806 5806 5807 5807 5808 5808 5809 5810 5811 5811 5812 5812 5813 5814 5816 5817 5818 5819 5820 5820 5821 5822 5823 5824 5826 5827 5828 5830 5831 5832 5833 5834 5834 5836 5837 5838 5838 5839 5839 5839 5840 5840 5841 5842 5842 5842 5843 5843
5789 5789 5789 5789 5789 5790 5790 5790 5790 5791 5792 5792 5791 5792 5792 5793 5794 5794 5794 5795 5795 5796 5797 5798 5799 5800 5800 5801 5801 5801 5802 5802 5803 5803 5803 5804 5804 5804 5804 5805 5805 5805 5806 5807 5807 5808 5809 5810 5810 5811 5812 5813 5814 5815 5816 5817 5818 5818 5819 5820 5821 5822 5824 5825 5827 5828 5829 5830 5830 5831 5832 5833 5834 5835 5836 5837 5837 5837 5838 5838 5839 5840 5840 5840 5841
5788 5787 5787 5787 5787 5788 5789 5789 5789 5790 5790 5791 5791 5791 5791 5791 5792 5792 5792 5793 5794 5794 5794 5795 5796 5797 5798 5799 5799 5799 5799 5799 5800 5800 5801 5801 5802 5802 5802 5803 5803 5803 5803 5804 5805 5805 5806 5807 5808 5808 5809 5810 5811 5811 5812 5814 5814 5815 5816 5817 5818 5819 5820 5822 5823 5824 5825 5826 5827 5828 5829 5830 5831 5832 5833 5834 5834 5835 5835 5836 5837 5837 5838 5838 5838
5786 5786 5785 5785 5785 5786 5787 5787 5787 5788 5788 5789 5789 5789 5790 5790 5790 5791 5791 5792 5792 5792 5793 5793 5794 5795 5796 5796 5796 5796 5796 5796 5797 5797 5798 5799 5799 5800 5800 5800 5801 5801 5801 5802 5802 5803 5803 5804 5805 5806 5806 5807 5807 5808 5809 5810 5811 5812 5813 5814 5815 5816 5817 5818 5819 5820 5821 5823 5824 5825 5826 5827 5828 5829 5830 5831 5831 5832 5832 5833 5834 5834 5835 5835 5836
5785 5785 5784 5784 5784 5784 5785 5785 5785 5786 5787 5788 5788 5788 5788 5789 5789 5790 5790 5791 5791 5791 5791 5792 5793 5793 5793 5793 5794 5794 5794 5794 5795 5795 5796 5796 5797 5797 5798 5798 5799 5799 5799 5799 5800 5800 5800 5801 5801 5802 5803 5804 5805 5805 5806 5807 5808 5809 5810 5812 5813 5813 5814 5815 5815 5817 5818 5819 5820 5821 5822 5824 5825 5826 5827 5827 5828 5829 5829 5830 5831 5831 5832 5832 5833
5783 5783 5783 5782 5782 5782 5783 5783 5784 5784 5785 5786 5787 5787 5787 5788 5788 5789 5790 5790 5789 5789 5790 5790 5791 5791 5790 5791 5791 5792 5792 5793 5793 5793 5794 5794 5795 5795 5795 5796 5796 5797 5797 5797 5797 5797 5797 5797 5798 5799 5800 5801 5802 5803 5804 5805 5806 5807 5809 5810 5811 5811 5811 5812 5813 5814 5815 5815 5816 5817 5819 5820 5822 5823 5824 5824 5825 5826 5826 5827 5828 5828 5829 5829 5830
5781 5781 5781 5781 5780 5780 5781 5781 5782 5783 5784 5785 5785 5786 5786 5787 5787 5788 5789 5789 5787 5787 5788 5788 5788 5788 5788 5788 5789 5789 5790 5791 5791 5791 5792 5792 5793 5793 5793 5793 5794 5794 5794 5794 5795 5795 5794 5795 5795 5796 5797 5798 5799 5800 5801 5803 5804 5805 5806 5807 5808 5808 5808 5809 5811 5812 5812 5812 5812 5813 5815 5816 5817 5819 5820 5821 5822 5823 5823 5824 5825 5825 5826 5826 5827
5779 5779 5779 5779 5779 5779 5779 5780 5780 5781 5782 5783 5784 5784 5785 5786 5786 5787 5788 5787 5786 5786 5786 5786 5786 5786 5786 5786 5787 5788 5788 5789 5789 5789 5789 5790 5790 5791 5791 5791 5791 5791 5791 5792 5792 5792 5792 5792 5793 5794 5794 5795 5796 5797 5799 5800 5801 5802 5802 5803 5803 5803 5804 5805 5806 5807 5808 5809 5809 5809 5810 5811 5813 5814 5816 5817 5818 5819 5820 5821 5821 5822 5822 5823 5823
5777 5777 5777 5778 5778 5778 5778 5778 5779 5780 5781 5781 5782 5783 5784 5784 5784 5785 5786 5786 5785 5784 5784 5784 5784 5784 5784 5785 5785 5786 5786 5786 5787 5787 5787 5788 5788 5788 5789 5789 5789 5789 5789 5789 5789 5789 5789 5790 5790 5791 5792 5793 5794 5795 5796 5796 5797 5797 5797 5798 5798 5799 5799 5800 5801 5802 5803 5804 5805 5806 5806 5807 5808 5809 5811 5813 5814 5815 5816 5817 5818 5818 5819 5820 5820
5776 5775 5776 5776 5776 5777 5777 5777 5778 5778 5779 5780 5780 5781 5782 5782 5783 5783 5783 5784 5784 5783 5782 5781 5781 5782 5782 5782 5783 5783 5784 5785 5785 5785 5785 5785 5786 5786 5786 5787 5787 5787 5787 5787 5787 5787 5787 5788 5788 5789 5790 5790 5790 5791 5791 5792 5792 5792 5793 5793 5794 5794 5795 5797 5797 5799 5800 5800 5802 5803 5804 5803 5804 5805 5807 5808 5810 5811 5812 5813 5814 5815 5815 5816 5816
5774 5774 5774 5774 5775 5775 5775 5776 5776 5777 5777 5778 5779 5779 5780 5781 5781 5781 5781 5781 5782 5782 5781 5780 5779 5779 5780 5780 5780 5781 5781 5782 5782 5783 5783 5783 5784 5784 5785 5785 5785 5785 5785 5785 5785 5785 5785 5786 5786 5786 5786 5786 5786 5787 5788 5788 5788 5788 5789 5789 5790 5790 5791 5792 5793 5794 5796 5796 5797 5799 5801 5801 5801 5802 5803 5804 5805 5806 5808 5809 5810 5810 5811 5812 5813
5772 5772 5772 5772 5773 5773 5773 5774 5774 5774 5775 5776 5777 5778 5778 5778 5779 5779 5779 5779 5779 5779 5780 5779 5778 5778 5778 5778 5779 5779 5779 5780 5780 5780 5781 5781 5781 5782 5782 5782 5782 5782 5782 5782 5782 5782 5783 5783 5783 5783 5783 5782 5783 5783 5784 5785 5785 5785 5785 5785 5786 5787 5787 5788 5789 5790 5791 5792 5793 5794 5796 5797 5798 5799 5799 5801 5802 5803 5804 5805 5806 5806 5807 5808 5809
5770 5770 5770 5770 5770 5771 5771 5772 5772 5772 5773 5774 5775 5775 5776 5776 5776 5777 5777 5777 5777 5777 5777 5777 5777 5777 5777 5777 5777 5777 5777 5777 5777 5778 5778 5779 5779 5779 5780 5779 5779 5779 5779 5779 5779 5779 5780 5780 5781 5780 5780 5779 5780 5780 5781 5782 5782 5781 5781 5781 5782 5783 5784 5784 5785 5786 5787 5788 5789 5790 5791 5792 5794 5795 5796 5797 5799 5799 5800 5802 5802 5802 5803 5804 5805
5768 5768 5768 5768 5768 5768 5769 5769 5770 5771 5771 5772 5773 5773 5773 5774 5774 5775 5775 5775 5775 5775 5775 5775 5775 5775 5775 5775 5775 5775 5775 5775 5775 5775 5775 5776 5776 5777 5777 5777 5777 5776 5776 5776 5776 5777 5777 5778 5778 5777 5777 5777 5777 5778 5778 5779 5778 5778 5777 5778 5779 5779 5780 5781 5782 5783 5784 5784 5785 5786 5787 5788 5790 5791 5792 5793 5795 5795 5796 5797 5798 5798 5799 5800 5802
5766 5766 5765 5765 5766 5766 5766 5767 5767 5768 5769 5770 5770 5771 5771 5771 5772 5773 5773 5773 5774 5773 5773 5773 5773 5772 5772 5772 5772 5773 5773 5773 5773 5773 5773 5773 5773 5773 5774 5774 5774 5774 5774 5773 5774 5774 5774 5775 5775 5774 5774 5774 5774 5775 5776 5776 5775 5775 5774 5775 5776 5777 5778 5778 5779 5780 5781 5781 5781 5782 5783 5784 5785 5787 5788 5790 5791 5791 5792 5793 5794 5795 5796 5796 5798
5764 5764 5763 5763 5763 5763 5764 5764 5765 5765 5766 5767 5768 5768 5768 5769 5769 5770 5770 5771 5771 5771 5770 5770 5770 5770 5770 5770 5770 5770 5770 5770 5770 5770 5770 5770 5770 5770 5771 5771 5771 5771 5770 5770 5771 5771 5771 5771 5772 5772 5771 5771 5772 5772 5773 5773 5772 5772 5772 5773 5774 5774 5775 5775 5776 5777 5777 5777 5777 5778 5780 5780 5781 5783 5784 5786 5788 5788 5789 5790 5791 5792 5792 5793 5795
5762 5762 5761 5761 5761 5761 5762 5762 5762 5763 5764 5764 5765 5765 5765 5766 5766 5767 5767 5767 5767 5767 5767 5767 5767 5767 5767 5767 5767 5767 5767 5767 5767 5767 5767 5767 5767 5767 5767 5768 5768 5768 5768 5767 5768 5768 5768 5768 5769 5769 5769 5769 5769 5770 5770 5770 5770 5769 5769 5770 5771 5771 5772 5772 5773 5773 5773 5773 5774 5776 5777 5776 5777 5779 5780 5782 5784 5784 5785 5786 5787 5787 5788 5789 5791
5760 5760 5759 5759 5759 5759 5760 5760 5760 5761 5761 5762 5762 5762 5762 5763 5764 5764 5764 5764 5764 5764 5764 5765 5765 5765 5765 5765 5765 5765 5765 5765 5765 5765 5764 5764 5764 5765 5765 5765 5765 5765 5765 5765 5765 5765 5765 5765 5765 5766 5766 5766 5766 5767 5767 5767 5767 5767 5767 5767 5768 5769 5769 5770 5771 5771 5771 5771 5772 5774 5774 5774 5775 5776 5777 5779 5780 5780 5781 5782 5782 5783 5784 5785 5786
5758 5758 5758 5758 5758 5758 5758 5758 5758 5758 5759 5759 5760 5759 5759 5760 5760 5761 5762 5762 5762 5762 5762 5762 5762 5763 5763 5764 5764 5763 5763 5763 5763 5763 5762 5762 5763 5763 5763 5763 5763 5763 5763 5762 5762 5762 5762 5762 5762 5762 5762 5763 5763 5763 5764 5764 5764 5764 5764 5764 5765 5766 5766 5767 5768 5768 5769 5769 5769 5770 5770 5771 5771 5772 5773 5774 5775 5776 5777 5777 5778 5780 5781 5781 5781
5756 5756 5756 5756 5756 5756 5756 5756 5756 5756 5756 5757 5757 5757 5757 5757 5758 5758 5759 5759 5759 5759 5760 5760 5760 5760 5761 5761 5762 5762 5762 5761 5761 5761 5761 5761 5761 5761 5761 5761 5760 5760 5760 5760 5760 5760 5760 5759 5759 5759 5759 5760 5760 5760 5760 5761 5761 5761 5761 5761 5762 5763 5763 5764 5764 5765 5765 5765 5765 5766 5766 5767 5767 5768 5769 5770 5771 5772 5773 5773 5773 5775 5776 5777 5778
5754 5754 5754 5754 5754 5754 5754 5754 5754 5754 5754 5754 5754 5754 5755 5755 5755 5755 5756 5756 5757 5757 5757 5757 5757 5758 5758 5759 5759 5760 5760 5760 5760 5759 5759 5759 5759 5759 5759 5759 5759 5758 5758 5758 5758 5758 5758 5757 5757 5757 5757 5757 5758 5758 5758 5758 5758 5758 5758 5759 5759 5760 5760 5761 5762 5762 5762 5762 5762 5762 5763 5763 5763 5764 5764 5766 5767 5768 5769 5769 5769 5770 5771 5772 5773
5752 5752 5752 5752 5752 5752 5752 5752 5752 5752 5752 5752 5752 5753 5753 5753 5753 5753 5753 5754 5754 5754 5754 5755 5755 5756 5756 5757 5757 5757 5758 5758 5758 5758 5757 5757 5757 5757 5757 5757 5757 5757 5757 5757 5756 5756 5756 5756 5756 5756 5756 5756 5756 5756 5756 5756 5756 5756 5756 5757 5757 5757 5758 5758 5759 5759 5760 5760 5759 5759 5759 5760 5760 5760 5761 5762 5763 5764 5765 5765 5765 5766 5766 5767 5768
5750 5750 5750 5750 5750 5750 5750 5750 5750 5750 5750 5750 5751 5751 5751 5752 5752 5752 5752 5752 5752 5752 5752 5753 5753 5754 5754 5755 5755 5756 5756 5756 5756 5756 5756 5755 5755 5755 5755 5755 5755 5755 5755 5755 5755 5755 5755 5755 5755 5755 5754 5754 5754 5754 5754 5754 5755 5755 5755 5755 5755 5755 5755 5756 5756 5757 5757 5757 5757 5757 5757 5757 5757 5757 5757 5758 5759 5760 5761 5761 5762 5762 5762 5762 5763
5748 5748 5748 5748 5748 5748 5748 5748 5748 5748 5749 5749 5749 5749 5750 5750 5750 5750 5750 5750 5751 5751 5751 5751 5751 5752 5752 5753 5753 5754 5754 5754 5754 5754 5754 5754 5754 5753 5753 5753 5754 5754 5754 5754 5754 5754 5754 5754 5754 5754 5753 5753 5753 5753 5753 5753 5753 5753 5753 5753 5754 5754 5754 5754 5754 5754 5754 5754 5754 5754 5754 5754 5754 5754 5754 5754 5755 5755 5756 5757 5757 5758 5758 5758 5759
5745 5745 5746 5746 5746 5746 5747 5747 5747 5747 5747 5747 5747 5747 5748 5748 5748 5748 5749 5749 5749 5749 5749 5749 5750 5750 5750 5751 5751 5751 5751 5752 5752 5752 5752 5752 5752 5752 5752 5752 5752 5752 5752 5752 5753 5753 5753 5753 5753 5752 5752 5752 5751 5751 5752 5751 5751 5751 5751 5751 5751 5752 5752 5752 5753 5753 5752 5752 5752 5752 5751 5751 5751 5751 5751 5751 5751 5751 5752 5752 5752 5752 5753 5753 5754
5742 5743 5743 5743 5744 5744 5745 5746 5745 5745 5745 5745 5745 5745 5745 5745 5746 5746 5747 5747 5747 5747 5748 5748 5748 5748 5748 5749 5749 5749 5749 5749 5750 5750 5750 5750 5750 5750 5750 5750 5750 5750 5750 5750 5751 5751 5751 5751 5751 5751 5751 5750 5750 5750 5750 5750 5749 5749 5749 5748 5748 5749 5749 5750 5750 5750 5750 5750 5750 5749 5749 5749 5748 5748 5748 5748 5748 5748 5748 5747 5747 5747 5747 5748 5749
5740 5740 5740 5741 5741 5742 5743 5743 5744 5743 5743 5743 5743 5743 5743 5743 5744 5744 5744 5745 5745 5746 5746 5746 5746 5746 5747 5747 5747 5747 5747 5747 5747 5748 5748 5748 5748 5748 5748 5748 5748 5748 5748 5748 5748 5749 5749 5749 5749 5749 5749 5748 5748 5748 5747 5747 5747 5747 5747 5746 5746 5746 5746 5746 5746 5747 5747 5747 5746 5746 5746 5745 5745 5745 5744 5744 5744 5744 5744 5744 5744 5743 5743 5744 5744
5737 5737 5737 5738 5738 5739 5739 5740 5740 5741 5741 5741 5741 5741 5741 5741 5741 5742 5742 5742 5743 5743 5744 5744 5744 5744 5745 5745 5745 5745 5745 5745 5745 5745 5745 5745 5745 5745 5745 5745 5745 5746 5746 5746 5746 5746 5746 5747 5747 5747 5747 5746 5746 5745 5745 5745 5744 5744 5744 5744 5744 5743 5743 5743 5743 5743 5743 5743 5743 5743 5742 5742 5742 5741 5741 5741 5740 5740 5740 5740 5740 5740 5740 5740 5740
5735 5734 5734 5735 5735 5735 5736 5736 5737 5738 5738 5739 5739 5739 5739 5739 5739 5740 5740 5740 5741 5741 5741 5742 5742 5742 5742 5742 5742 5742 5742 5742 5742 5742 5742 5742 5742 5742 5742 5742 5742 5743 5743 5743 5743 5743 5743 5743 5743 5744 5744 5744 5744 5743 5743 5742 5742 5741 5741 5741 5741 5740 5740 5740 5740 5740 5740 5740 5740 5739 5739 5739 5738 5738 5738 5737 5737 5737 5737 5737 5737 5737 5737 5737 5737
5732 5732 5732 5732 5732 5733 5733 5733 5734 5734 5735 5736 5736 5737 5737 5737 5737 5737 5738 5738 5738 5739 5739 5739 5739 5739 5739 5740 5740 5740 5740 5740 5740 5740 5740 5739 5739 5739 5739 5739 5739 5740 5740 5740 5740 5740 5739 5739 5740 5740 5740 5740 5740 5740 5739 5739 5739 5738 5738 5738 5737 5737 5737 5737 5737 5737 5737 5736 5736 5736 5736 5735 5735 5734 5734 5734 5733 5733 5733 5733 5733 5733 5734 5734 5734
5729 5729 5730 5730 5730 5730 5730 5730 5731 5731 5732 5732 5733 5733 5734 5734 5735 5735 5735 5735 5736 5736 5736 5736 5736 5736 5736 5737 5737 5737 5737 5737 5737 5737 5736 5736 5736 5736 5736 5737 5737 5737 5737 5736 5736 5736 5736 5736 5736 5736 5736 5736 5736 5736 5736 5735 5735 5734 5734 5733 5733 5733 5733 5733 5733 5733 5733 5733 5733 5733 5732 5732 5731 5731 5730 5730 5729 5729 5729 5729 5729 5729 5729 5729 5729
5726 5726 5727 5727 5727 5727 5727 5727 5728 5728 5728 5729 5729 5729 5730 5731 5731 5732 5732 5732 5732 5732 5733 5733 5733 5733 5733 5733 5733 5733 5734 5734 5734 5733 5733 5733 5733 5733 5733 5733 5734 5734 5734 5733 5733 5733 5733 5732 5732 5732 5732 5732 5732 5731 5731 5731 5731 5730 5730 5729 5729 5728 5728 5728 5728 5728 5729 5729 5729 5729 5728 5728 5727 5727 5726 5726 5726 5726 5725 5725 5724 5724 5724 5724 5724
5723 5723 5723 5723 5723 5724 5724 5724 5724 5724 5724 5724 5725 5725 5726 5726 5727 5728 5728 5728 5728 5729 5729 5729 5730 5730 5730 5730 5730 5730 5730 5729 5730 5730 5729 5729 5729 5729 5730 5730 5730 5730 5730 5730 5729 5729 5729 5729 5728 5728 5728 5728 5728 5727 5727 5726 5726 5726 5726 5725 5725 5724 5723 5723 5722 5723 5723 5723 5724 5723 5723 5723 5722 5722 5722 5722 5722 5722 5721 5720 5720 5719 5719 5719 5719
5718 5719 5719 5720 5720 5721 5721 5720 5721 5720 5720 5720 5721 5721 5721 5722 5723 5724 5724 5724 5724 5725 5725 5725 5726 5726 5726 5727 5727 5726 5726 5725 5725 5725 5725 5725 5725 5725 5725 5726 5726 5726 5726 5725 5725 5725 5725 5724 5724 5724 5723 5723 5723 5723 5722 5722 5722 5721 5721 5720 5720 5720 5719 5718 5717 5716 5716 5717 5718 5717 5716 5717 5717 5716 5716 5716 5717 5717 5716 5715 5715 5715 5714 5714 5714
5714 5714 5715 5716 5717 5717 5716 5716 5717 5718 5717 5717 5717 5717 5717 5718 5719 5719 5719 5720 5720 5720 5720 5720 5721 5721 5722 5722 5722 5722 5721 5720 5720 5720 5720 5720 5721 5721 5721 5721 5721 5721 5721 5720 5720 5720 5720 5719 5719 5719 5719 5718 5718 5718 5718 5717 5716 5716 5716 5715 5715 5714 5714 5713 5712 5711 5710 5711 5712 5711 5710 5709 5710 5710 5709 5709 5710 5710 5710 5709 5709 5709 5709 5709 5708
5709 5710 5711 5712 5712 5712 5712 5712 5714 5714 5714 5713 5713 5713 5713 5714 5715 5715 5715 5715 5715 5715 5716 5716 5716 5716 5717 5717 5717 5716 5716 5715 5715 5715 5715 5715 5715 5715 5716 5716 5716 5715 5715 5714 5714 5715 5715 5714 5714 5714 5713 5713 5712 5712 5711 5711 5711 5710 5710 5709 5709 5708 5708 5708 5707 5705 5703 5704 5705 5705 5703 5702 5702 5703 5702 5702 5702 5702 5702 5701 5702 5702 5703 5702 5702
5704 5705 5706 5707 5707 5707 5708 5708 5709 5710 5709 5709 5709 5710 5709 5710 5710 5710 5710 5711 5711 5711 5711 5711 5711 5711 5711 5712 5712 5711 5711 5710 5709 5709 5709 5709 5709 5709 5709 5709 5709 5709 5708 5708 5708 5709 5709 5708 5708 5708 5708 5707 5706 5705 5705 5704 5704 5704 5703 5702 5702 5702 5701 5701 5701 5699 5697 5697 5698 5698 5697 5695 5694 5695 5694 5694 5694 5694 5693 5693 5693 5694 5694 5695 5695
5700 5699 5700 5701 5702 5703 5703 5703 5704 5704 5705 5705 5705 5705 5704 5705 5705 5706 5706 5707 5707 5706 5706 5706 5706 5706 5706 5706 5706 5706 5705 5704 5704 5703 5703 5702 5702 5702 5702 5702 5702 5702 5702 5701 5702 5702 5702 5701 5700 5700 5700 5699 5699 5698 5697 5697 5696 5695 5695 5694 5693 5693 5693 5693 5692 5691 5690 5689 5689 5690 5690 5688 5687 5688 5687 5685 5685 5686 5685 5685 5684 5685 5686 5686 5686
5694 5694 5695 5696 5697 5698 5698 5698 5698 5698 5699 5700 5700 5700 5700 5700 5701 5701 5701 5701 5701 5701 5701 5701 5700 5700 5700 5700 5700 5700 5699 5698 5698 5697 5696 5696 5695 5695 5695 5695 5694 5694 5694 5694 5695 5695 5694 5692 5692 5691 5691 5691 5690 5690 5689 5688 5687 5686 5686 5686 5685 5684 5684 5684 5683 5682 5681 5680 5680 5682 5683 5680 5679 5680 5680 5678 5677 5677 5676 5676 5676 5676 5677 5677 5678
5687 5688 5689 5690 5691 5692 5692 5693 5693 5693 5694 5694 5695 5695 5696 5696 5696 5696 5696 5696 5695 5695 5695 5695 5695 5695 5695 5694 5694 5694 5693 5692 5692 5691 5690 5690 5689 5689 5688 5687 5687 5687 5687 5687 5687 5686 5685 5685 5684 5683 5683 5682 5682 5681 5680 5679 5678 5677 5677 5676 5675 5675 5675 5675 5674 5672 5671 5670 5670 5671 5673 5673 5671 5671 5671 5670 5669 5669 5668 5667 5666 5667 5668 5669 5669
5681 5681 5682 5683 5684 5685 5686 5686 5687 5687 5688 5688 5689 5689 5690 5690 5690 5690 5690 5689 5689 5689 5689 5689 5689 5689 5689 5689 5689 5688 5687 5687 5686 5685 5685 5684 5683 5682 5681 5681 5680 5680 5680 5679 5679 5678 5678 5677 5676 5675 5674 5674 5673 5672 5670 5669 5668 5668 5667 5667 5666 5665 5666 5666 5665 5664 5662 5661 5660 5659 5662 5663 5662 5662 5663 5662 5661 5661 5660 5659 5658 5658 5659 5659 5660
5674 5675 5675 5676 5677 5678 5679 5680 5680 5681 5682 5683 5683 5684 5684 5684 5683 5683 5683 5683 5682 5682 5682 5683 5683 5683 5683 5683 5683 5682 5681 5681 5680 5679 5679 5678 5677 5676 5675 5674 5674 5674 5673 5673 5672 5671 5670 5669 5668 5667 5666 5665 5664 5662 5661 5660 5659 5658 5657 5657 5656 5655 5656 5656 5656 5655 5654 5653 5650 5649 5650 5652 5652 5652 5653 5653 5653 5652 5652 5651 5650 5650 5650 5650 5649
5667 5668 5668 5669 5670 5671 5672 5673 5674 5675 5676 5676 5677 5677 5677 5677 5677 5677 5676 5676 5676 5676 5676 5676 5676 5677 5677 5676 5676 5676 5675 5674 5674 5673 5672 5671 5670 5670 5669 5668 5668 5667 5667 5666 5665 5664 5663 5662 5661 5659 5658 5656 5655 5653 5652 5650 5649 5648 5648 5647 5646 5645 5645 5645 5645 5645 5645 5644 5642 5639 5640 5642 5641 5641 5642 5643 5644 5644 5643 5642 5642 5641 5642 5641 5640
5660 5660 5661 5662 5663 5664 5665 5666 5667 5668 5669 5669 5669 5669 5670 5670 5670 5670 5670 5670 5670 5670 5670 5670 5670 5670 5670 5669 5669 5669 5668 5667 5667 5666 5665 5665 5664 5664 5663 5662 5662 5661 5660 5659 5658 5657 5656 5654 5653 5651 5650 5648 5646 5644 5643 5641 5639 5638 5638 5637 5636 5635 5635 5635 5634 5634 5635 5635 5632 5629 5631 5633 5632 5631 5630 5631 5633 5635 5634 5633 5633 5632 5632 5632 5632